When you browse on this site, cookies collect data to enhance your experience and personalize the content and advertising you see.
Visit our Privacy Policy to learn more. By continuing to use the site, you agree to this use of cookies and data.
  • In Österreich
  • Länderverzeichnis
  • Für 7 Tage
  • Wassertemperatur
  • Wetterkarte
  • News
  • Widgets
  • user-avatar
    Anmelden

    Stündliche Wetter San Agustín Tlaxiaca

    Heute, 18 Januar, Samstag

    Zeit Temperatur Niederschläge Wind Luftdruck Luftfeuchtigkeit
    00:00 +12°C° 0 mm 1 m/S 575 mmHg 84%
    01:00 +12°C° 0 mm 1 m/S 574 mmHg 85%
    02:00 +11°C° 0 mm 1 m/S 574 mmHg 86%
    03:00 +11°C° 0 mm 1 m/S 574 mmHg 87%
    04:00 +11°C° 0 mm 1 m/S 574 mmHg 89%
    05:00 +9°C° 0 mm 0 m/S 574 mmHg 90%
    06:00 +11°C° 0 mm 1 m/S 574 mmHg 87%
    07:00 +12°C° 0 mm 1 m/S 575 mmHg 84%
    08:00 +12°C° 0 mm 1 m/S 575 mmHg 81%
    09:00 +14°C° 0 mm 1 m/S 576 mmHg 74%
    10:00 +15°C° 0 mm 2 m/S 576 mmHg 66%
    11:00 +17°C° 0 mm 2 m/S 577 mmHg 59%
    12:00 +17°C° 0.1 mm 3 m/S 577 mmHg 56%
    13:00 +18°C° 0.1 mm 4 m/S 576 mmHg 54%
    14:00 +18°C° 0.1 mm 4 m/S 576 mmHg 51%
    15:00 +17°C° 0.1 mm 4 m/S 575 mmHg 57%
    16:00 +16°C° 0.1 mm 3 m/S 575 mmHg 63%
    17:00 +14°C° 0.1 mm 3 m/S 575 mmHg 69%
    18:00 +13°C° 0.4 mm 3 m/S 575 mmHg 73%
    19:00 +13°C° 0.4 mm 3 m/S 575 mmHg 76%
    20:00 +13°C° 0.4 mm 2 m/S 576 mmHg 80%
    21:00 +13°C° 0.2 mm 2 m/S 576 mmHg 82%
    22:00 +13°C° 0.2 mm 2 m/S 575 mmHg 84%
    23:00 +13°C° 0.2 mm 2 m/S 575 mmHg 86%

    Morgen, 19 Januar, Sonntag

    Zeit Temperatur Niederschläge Wind Luftdruck Luftfeuchtigkeit
    00:00 +12°C° 0.2 mm 2 m/S 575 mmHg 88%
    01:00 +12°C° 0.2 mm 2 m/S 575 mmHg 90%
    02:00 +12°C° 0.2 mm 2 m/S 575 mmHg 91%
    03:00 +10°C° 0.2 mm 2 m/S 575 mmHg 92%
    04:00 +10°C° 0.2 mm 2 m/S 575 mmHg 92%
    05:00 +11°C° 0.2 mm 1 m/S 575 mmHg 92%
    06:00 +11°C° 0.1 mm 1 m/S 575 mmHg 90%
    07:00 +12°C° 0.1 mm 1 m/S 576 mmHg 88%
    08:00 +12°C° 0.1 mm 1 m/S 577 mmHg 86%
    09:00 +12°C° 0.4 mm 2 m/S 576 mmHg 85%
    10:00 +12°C° 0.4 mm 2 m/S 576 mmHg 83%
    11:00 +11°C° 0.4 mm 3 m/S 576 mmHg 82%
    12:00 +12°C° 0.1 mm 3 m/S 576 mmHg 80%
    13:00 +12°C° 0.1 mm 3 m/S 576 mmHg 78%
    14:00 +12°C° 0.1 mm 4 m/S 576 mmHg 76%
    15:00 +11°C° 0 mm 3 m/S 575 mmHg 79%
    16:00 +11°C° 0 mm 3 m/S 575 mmHg 81%
    17:00 +10°C° 0 mm 3 m/S 575 mmHg 83%
    18:00 +10°C° 1.1 mm 2 m/S 576 mmHg 86%
    19:00 +10°C° 1.1 mm 2 m/S 576 mmHg 88%
    20:00 +10°C° 1.1 mm 2 m/S 577 mmHg 91%
    21:00 +10°C° 1.2 mm 2 m/S 577 mmHg 91%
    22:00 +9°C° 1.2 mm 2 m/S 577 mmHg 90%
    23:00 +9°C° 1.2 mm 2 m/S 577 mmHg 90%

    übermorgen, 20 Januar, Montag

    Zeit Temperatur Niederschläge Wind Luftdruck Luftfeuchtigkeit
    00:00 +9°C° 0.2 mm 2 m/S 576 mmHg 91%
    01:00 +10°C° 0.2 mm 1 m/S 576 mmHg 91%
    02:00 +10°C° 0.2 mm 1 m/S 576 mmHg 92%
    03:00 +10°C° 0 mm 1 m/S 576 mmHg 92%
    04:00 +9°C° 0 mm 2 m/S 576 mmHg 92%
    05:00 +9°C° 0 mm 2 m/S 576 mmHg 92%
    06:00 +9°C° 0 mm 2 m/S 576 mmHg 90%
    07:00 +9°C° 0 mm 2 m/S 577 mmHg 87%
    08:00 +9°C° 0 mm 2 m/S 577 mmHg 85%
    09:00 +10°C° 0 mm 2 m/S 578 mmHg 80%
    10:00 +12°C° 0 mm 2 m/S 578 mmHg 74%
    11:00 +13°C° 0 mm 2 m/S 578 mmHg 69%
    12:00 +13°C° 0 mm 3 m/S 578 mmHg 68%
    13:00 +13°C° 0 mm 3 m/S 577 mmHg 66%
    14:00 +13°C° 0 mm 4 m/S 577 mmHg 65%
    15:00 +13°C° 0 mm 4 m/S 576 mmHg 68%
    16:00 +12°C° 0 mm 4 m/S 576 mmHg 70%
    17:00 +11°C° 0 mm 4 m/S 576 mmHg 73%
    18:00 +11°C° 0 mm 4 m/S 576 mmHg 76%
    19:00 +10°C° 0 mm 3 m/S 576 mmHg 80%
    20:00 +9°C° 0 mm 3 m/S 576 mmHg 83%
    21:00 +9°C° 0 mm 3 m/S 576 mmHg 85%
    22:00 +9°C° 0 mm 3 m/S 576 mmHg 86%
    23:00 +9°C° 0 mm 2 m/S 576 mmHg 87%

    21 Januar, Dienstag

    Zeit Temperatur Niederschläge Wind Luftdruck Luftfeuchtigkeit
    00:00 +9°C° 0 mm 2 m/S 576 mmHg 87%
    01:00 +9°C° 0 mm 2 m/S 575 mmHg 86%
    02:00 +10°C° 0 mm 1 m/S 575 mmHg 85%
    03:00 +9°C° 0 mm 1 m/S 575 mmHg 87%
    04:00 +9°C° 0 mm 1 m/S 574 mmHg 89%
    05:00 +8°C° 0 mm 1 m/S 573 mmHg 90%
    06:00 +8°C° 0 mm 0 m/S 574 mmHg 85%
    07:00 +9°C° 0 mm 0 m/S 575 mmHg 80%
    08:00 +10°C° 0 mm 0 m/S 576 mmHg 74%
    09:00 +13°C° 0 mm 1 m/S 576 mmHg 67%
    10:00 +14°C° 0 mm 1 m/S 577 mmHg 59%
    11:00 +16°C° 0 mm 1 m/S 577 mmHg 52%
    12:00 +18°C° 0 mm 1 m/S 577 mmHg 49%
    13:00 +18°C° 0 mm 2 m/S 576 mmHg 47%
    14:00 +18°C° 0 mm 2 m/S 576 mmHg 44%
    15:00 +17°C° 0 mm 2 m/S 575 mmHg 50%
    16:00 +16°C° 0 mm 2 m/S 575 mmHg 57%
    17:00 +15°C° 0 mm 2 m/S 574 mmHg 63%
    18:00 +14°C° 0.1 mm 2 m/S 574 mmHg 68%
    19:00 +14°C° 0.1 mm 1 m/S 574 mmHg 73%
    20:00 +13°C° 0.1 mm 1 m/S 574 mmHg 78%
    21:00 +12°C° 0 mm 1 m/S 574 mmHg 78%
    22:00 +12°C° 0 mm 1 m/S 574 mmHg 79%
    23:00 +11°C° 0 mm 1 m/S 573 mmHg 79%

    22 Januar, Mittwoch

    Zeit Temperatur Niederschläge Wind Luftdruck Luftfeuchtigkeit
    00:00 +11°C° 0 mm 1 m/S 573 mmHg 77%
    01:00 +11°C° 0 mm 1 m/S 573 mmHg 76%
    02:00 +11°C° 0 mm 1 m/S 572 mmHg 74%
    03:00 +11°C° 0 mm 1 m/S 572 mmHg 75%
    04:00 +10°C° 0 mm 1 m/S 572 mmHg 76%
    05:00 +10°C° 0 mm 1 m/S 571 mmHg 77%
    06:00 +11°C° 0 mm 1 m/S 572 mmHg 72%
    07:00 +12°C° 0 mm 1 m/S 573 mmHg 67%
    08:00 +13°C° 0 mm 1 m/S 574 mmHg 61%
    09:00 +15°C° 0 mm 2 m/S 574 mmHg 54%
    10:00 +17°C° 0 mm 3 m/S 575 mmHg 47%
    11:00 +18°C° 0 mm 3 m/S 575 mmHg 40%
    12:00 +19°C° 0 mm 4 m/S 575 mmHg 35%
    13:00 +20°C° 0 mm 5 m/S 575 mmHg 31%
    14:00 +21°C° 0 mm 6 m/S 574 mmHg 26%
    15:00 +20°C° 0 mm 5 m/S 574 mmHg 30%
    16:00 +17°C° 0 mm 5 m/S 573 mmHg 34%
    17:00 +17°C° 0 mm 4 m/S 573 mmHg 38%
    18:00 +16°C° 0 mm 3 m/S 573 mmHg 42%
    19:00 +15°C° 0 mm 2 m/S 573 mmHg 46%
    20:00 +14°C° 0 mm 2 m/S 573 mmHg 50%
    21:00 +14°C° 0 mm 2 m/S 573 mmHg 51%
    22:00 +14°C° 0 mm 1 m/S 573 mmHg 52%
    23:00 +13°C° 0 mm 1 m/S 573 mmHg 53%

    23 Januar, Donnerstag

    Zeit Temperatur Niederschläge Wind Luftdruck Luftfeuchtigkeit
    00:00 +13°C° 0 mm 1 m/S 572 mmHg 54%
    01:00 +13°C° 0 mm 1 m/S 572 mmHg 55%
    02:00 +13°C° 0 mm 1 m/S 571 mmHg 56%
    03:00 +12°C° 0 mm 1 m/S 571 mmHg 58%
    04:00 +12°C° 0 mm 1 m/S 571 mmHg 59%
    05:00 +12°C° 0 mm 1 m/S 571 mmHg 61%
    06:00 +12°C° 0 mm 1 m/S 571 mmHg 58%
    07:00 +13°C° 0 mm 2 m/S 572 mmHg 56%
    08:00 +13°C° 0 mm 2 m/S 573 mmHg 53%
    09:00 +14°C° 0 mm 3 m/S 573 mmHg 46%
    10:00 +17°C° 0 mm 4 m/S 573 mmHg 40%
    11:00 +17°C° 0 mm 5 m/S 574 mmHg 33%
    12:00 +19°C° 0 mm 5 m/S 574 mmHg 30%
    13:00 +20°C° 0 mm 5 m/S 573 mmHg 28%
    14:00 +21°C° 0 mm 5 m/S 573 mmHg 25%
    15:00 +20°C° 0 mm 5 m/S 573 mmHg 28%
    16:00 +19°C° 0 mm 4 m/S 572 mmHg 31%
    17:00 +18°C° 0 mm 4 m/S 572 mmHg 34%
    18:00 +17°C° 0 mm 3 m/S 572 mmHg 40%
    19:00 +14°C° 0 mm 3 m/S 572 mmHg 45%
    20:00 +14°C° 0 mm 2 m/S 572 mmHg 50%
    21:00 +13°C° 0 mm 2 m/S 572 mmHg 52%
    22:00 +13°C° 0 mm 1 m/S 572 mmHg 55%
    23:00 +12°C° 0 mm 1 m/S 571 mmHg 57%
    Mehr zeigen